Location: Dallas
(32.7833°N, 96.8000°W)
Time: 08:37:26
(UTC-06:00)

Envisat - Pass Details

Date: 24 October 2019
Orbit: 764 x 766 km, 98.1° (Epoch: 13 November)

Event Time Altitude Azimuth Distance (km) Brightness Sun altitude
Rises 07:09:28 0° 34° (NE) 3,232 6.6 -6.7°
Reaches altitude 10° 07:12:39 10° 55° (NE) 2,301 6.2 -6.1°
Maximum altitude 07:15:48 17° 94° (E) 1,885 6.6 -5.4°
Drops below altitude 10° 07:18:56 10° 132° (SE) 2,292 6.5 -4.8°
Sets 07:22:04 0° 153° (SSE) 3,214 6.8 -4.1°
